• In Portugal
  • List of Countries
  • For 7 days
  • Water Temperature
  • Satellite Maps
  • Weather Map
  • Weather Widgets
  • user-avatar
    Login

    Hourly Weather Maceio

    Today, 21 November, Tuesday

    Time Temperature Precipitation Wind Pressure Humidity
    00:00 +24°C° 0 mm 3 mps 759 mmHg 90%
    01:00 +24°C° 0 mm 2 mps 759 mmHg 92%
    02:00 +24°C° 0 mm 2 mps 759 mmHg 93%
    03:00 +24°C° 0 mm 2 mps 758 mmHg 94%
    04:00 +23°C° 0 mm 2 mps 758 mmHg 95%
    05:00 +24°C° 0 mm 2 mps 758 mmHg 92%
    06:00 +24°C° 0 mm 2 mps 758 mmHg 90%
    07:00 +25°C° 0 mm 2 mps 759 mmHg 87%
    08:00 +27°C° 0.1 mm 3 mps 759 mmHg 79%
    09:00 +29°C° 0.1 mm 4 mps 759 mmHg 71%
    10:00 +32°C° 0.1 mm 5 mps 759 mmHg 63%
    11:00 +33°C° 0 mm 5 mps 759 mmHg 61%
    12:00 +34°C° 0 mm 5 mps 759 mmHg 58%
    13:00 +35°C° 0 mm 6 mps 758 mmHg 55%
    14:00 +34°C° 0 mm 6 mps 758 mmHg 55%
    15:00 +34°C° 0 mm 6 mps 757 mmHg 55%
    16:00 +34°C° 0 mm 6 mps 757 mmHg 55%
    17:00 +32°C° 0 mm 5 mps 757 mmHg 63%
    18:00 +29°C° 0 mm 5 mps 757 mmHg 70%
    19:00 +27°C° 0 mm 4 mps 757 mmHg 78%
    20:00 +27°C° 0 mm 4 mps 758 mmHg 83%
    21:00 +26°C° 0 mm 4 mps 758 mmHg 89%
    22:00 +25°C° 0 mm 4 mps 759 mmHg 94%
    23:00 +25°C° 0.1 mm 4 mps 759 mmHg 95%

    Tomorrow, 22 November, Wednesday

    Time Temperature Precipitation Wind Pressure Humidity
    00:00 +25°C° 0.1 mm 4 mps 759 mmHg 95%
    01:00 +25°C° 0.1 mm 4 mps 758 mmHg 96%
    02:00 +25°C° 0.2 mm 4 mps 758 mmHg 96%
    03:00 +25°C° 0.2 mm 4 mps 758 mmHg 96%
    04:00 +25°C° 0.2 mm 4 mps 757 mmHg 96%
    05:00 +25°C° 0.2 mm 4 mps 758 mmHg 93%
    06:00 +26°C° 0.2 mm 5 mps 758 mmHg 91%
    07:00 +26°C° 0.2 mm 5 mps 758 mmHg 89%
    08:00 +28°C° 0.2 mm 5 mps 759 mmHg 83%
    09:00 +29°C° 0.2 mm 5 mps 759 mmHg 76%
    10:00 +30°C° 0.2 mm 6 mps 759 mmHg 70%
    11:00 +32°C° 0 mm 6 mps 759 mmHg 64%
    12:00 +34°C° 0 mm 6 mps 759 mmHg 58%
    13:00 +35°C° 0 mm 6 mps 758 mmHg 52%
    14:00 +34°C° 0 mm 6 mps 758 mmHg 53%
    15:00 +34°C° 0 mm 6 mps 757 mmHg 55%
    16:00 +33°C° 0 mm 6 mps 756 mmHg 56%
    17:00 +32°C° 0 mm 6 mps 757 mmHg 61%
    18:00 +29°C° 0 mm 6 mps 757 mmHg 67%
    19:00 +28°C° 0 mm 5 mps 757 mmHg 72%
    20:00 +27°C° 0 mm 5 mps 758 mmHg 76%
    21:00 +27°C° 0 mm 5 mps 758 mmHg 80%
    22:00 +26°C° 0 mm 5 mps 759 mmHg 84%
    23:00 +26°C° 0 mm 4 mps 758 mmHg 87%

    Day after tomorrow, 23 November, Thursday

    Time Temperature Precipitation Wind Pressure Humidity
    00:00 +25°C° 0 mm 4 mps 758 mmHg 90%
    01:00 +25°C° 0 mm 4 mps 758 mmHg 93%
    02:00 +25°C° 0 mm 4 mps 758 mmHg 94%
    03:00 +23°C° 0 mm 4 mps 757 mmHg 95%
    04:00 +23°C° 0 mm 4 mps 757 mmHg 96%
    05:00 +25°C° 0 mm 4 mps 758 mmHg 94%
    06:00 +25°C° 0 mm 4 mps 758 mmHg 91%
    07:00 +26°C° 0 mm 4 mps 758 mmHg 89%
    08:00 +28°C° 0 mm 5 mps 759 mmHg 79%
    09:00 +30°C° 0 mm 5 mps 759 mmHg 70%
    10:00 +33°C° 0 mm 6 mps 759 mmHg 61%
    11:00 +34°C° 0 mm 6 mps 759 mmHg 58%
    12:00 +35°C° 0 mm 6 mps 758 mmHg 55%
    13:00 +36°C° 0 mm 6 mps 758 mmHg 52%
    14:00 +35°C° 0.1 mm 7 mps 757 mmHg 54%
    15:00 +35°C° 0.1 mm 7 mps 757 mmHg 57%
    16:00 +34°C° 0.1 mm 7 mps 756 mmHg 59%
    17:00 +32°C° 0 mm 7 mps 757 mmHg 65%
    18:00 +30°C° 0 mm 6 mps 757 mmHg 72%
    19:00 +28°C° 0 mm 6 mps 758 mmHg 78%
    20:00 +28°C° 0 mm 6 mps 758 mmHg 80%
    21:00 +27°C° 0 mm 6 mps 759 mmHg 83%
    22:00 +27°C° 0 mm 5 mps 759 mmHg 86%
    23:00 +26°C° 0 mm 5 mps 759 mmHg 88%

    24 November, Friday

    Time Temperature Precipitation Wind Pressure Humidity
    00:00 +26°C° 0 mm 4 mps 758 mmHg 90%
    01:00 +25°C° 0 mm 4 mps 758 mmHg 93%
    02:00 +25°C° 0 mm 4 mps 758 mmHg 94%
    03:00 +25°C° 0 mm 4 mps 757 mmHg 95%
    04:00 +23°C° 0 mm 4 mps 757 mmHg 96%
    05:00 +25°C° 0 mm 4 mps 758 mmHg 93%
    06:00 +26°C° 0 mm 5 mps 758 mmHg 89%
    07:00 +26°C° 0 mm 5 mps 759 mmHg 86%
    08:00 +28°C° 0 mm 5 mps 759 mmHg 77%
    09:00 +30°C° 0 mm 5 mps 760 mmHg 67%
    10:00 +33°C° 0 mm 5 mps 760 mmHg 58%
    11:00 +34°C° 0 mm 6 mps 760 mmHg 55%
    12:00 +35°C° 0 mm 6 mps 759 mmHg 53%
    13:00 +36°C° 0 mm 6 mps 759 mmHg 50%
    14:00 +35°C° 0 mm 6 mps 758 mmHg 51%
    15:00 +35°C° 0 mm 6 mps 758 mmHg 53%
    16:00 +34°C° 0 mm 6 mps 758 mmHg 54%
    17:00 +33°C° 0 mm 6 mps 758 mmHg 61%
    18:00 +30°C° 0 mm 6 mps 758 mmHg 68%
    19:00 +28°C° 0 mm 5 mps 759 mmHg 75%
    20:00 +27°C° 0 mm 5 mps 759 mmHg 79%
    21:00 +27°C° 0 mm 5 mps 759 mmHg 83%
    22:00 +26°C° 0 mm 5 mps 760 mmHg 87%
    23:00 +26°C° 0.1 mm 5 mps 760 mmHg 90%

    25 November, Saturday

    Time Temperature Precipitation Wind Pressure Humidity
    00:00 +26°C° 0.1 mm 5 mps 759 mmHg 92%
    01:00 +25°C° 0.1 mm 5 mps 759 mmHg 94%
    02:00 +25°C° 0.1 mm 5 mps 759 mmHg 95%
    03:00 +25°C° 0.1 mm 4 mps 759 mmHg 95%
    04:00 +25°C° 0.1 mm 4 mps 758 mmHg 96%
    05:00 +26°C° 0.1 mm 4 mps 759 mmHg 93%
    06:00 +26°C° 0.1 mm 4 mps 759 mmHg 91%
    07:00 +27°C° 0.1 mm 4 mps 760 mmHg 88%
    08:00 +28°C° 0.1 mm 5 mps 760 mmHg 79%
    09:00 +30°C° 0.1 mm 5 mps 760 mmHg 69%
    10:00 +33°C° 0.1 mm 5 mps 761 mmHg 59%
    11:00 +33°C° 0.1 mm 5 mps 760 mmHg 59%
    12:00 +33°C° 0.1 mm 6 mps 760 mmHg 59%
    13:00 +33°C° 0.1 mm 6 mps 759 mmHg 59%
    14:00 +33°C° 0 mm 6 mps 759 mmHg 58%
    15:00 +34°C° 0 mm 6 mps 758 mmHg 58%
    16:00 +34°C° 0 mm 6 mps 758 mmHg 57%
    17:00 +32°C° 0 mm 6 mps 758 mmHg 65%
    18:00 +29°C° 0 mm 5 mps 759 mmHg 73%
    19:00 +27°C° 0 mm 5 mps 759 mmHg 80%
    20:00 +27°C° 0.1 mm 5 mps 759 mmHg 84%
    21:00 +26°C° 0.1 mm 4 mps 760 mmHg 88%
    22:00 +26°C° 0.1 mm 4 mps 760 mmHg 92%
    23:00 +25°C° 0.1 mm 4 mps 760 mmHg 93%

    26 November, Sunday

    Time Temperature Precipitation Wind Pressure Humidity
    00:00 +25°C° 0.1 mm 4 mps 759 mmHg 94%
    01:00 +25°C° 0.1 mm 4 mps 759 mmHg 95%
    02:00 +25°C° 0.1 mm 4 mps 759 mmHg 95%
    03:00 +25°C° 0.1 mm 4 mps 759 mmHg 95%
    04:00 +25°C° 0.1 mm 4 mps 758 mmHg 95%
    05:00 +25°C° 0 mm 4 mps 759 mmHg 93%
    06:00 +26°C° 0 mm 4 mps 759 mmHg 90%
    07:00 +26°C° 0 mm 4 mps 760 mmHg 88%
    08:00 +28°C° 0 mm 4 mps 760 mmHg 75%
    09:00 +30°C° 0 mm 4 mps 760 mmHg 63%
    10:00 +33°C° 0 mm 5 mps 760 mmHg 50%
    11:00 +34°C° 0 mm 5 mps 760 mmHg 49%
    12:00 +35°C° 0 mm 5 mps 759 mmHg 48%
    13:00 +35°C° 0 mm 5 mps 759 mmHg 47%
    14:00 +35°C° 0 mm 5 mps 758 mmHg 50%
    15:00 +34°C° 0 mm 5 mps 758 mmHg 53%
    16:00 +33°C° 0 mm 5 mps 757 mmHg 56%
    17:00 +30°C° 0 mm 5 mps 758 mmHg 62%
    18:00 +29°C° 0 mm 5 mps 758 mmHg 69%
    19:00 +27°C° 0 mm 4 mps 758 mmHg 75%
    20:00 +26°C° 0 mm 4 mps 758 mmHg 80%
    21:00 +26°C° 0 mm 4 mps 759 mmHg 85%
    22:00 +25°C° 0 mm 4 mps 759 mmHg 89%
    23:00 +25°C° 0.1 mm 4 mps 759 mmHg 91%
    Show more